User: anonymous   Login
Location: Unspecified
(0.0000°N, 0.0000°E)
Time: 20:19:57
(UTC+00:00)
Language:

SAUDISAT 3 - Orbit

View from above orbital plane
View from above orbital plane
View from above satellite
View from above satellite

Ground track
Ground track

The orbit is defined by the following mean orbital elements,

1 31118U          26145.61386632 +.00000000 +00000-0 +45657-4 0 00001
2 31118  98.1446  96.0018 0013475 302.5205  57.4699 14.71409515    06
Epoch (UTC): 25 May 2026 14:43:58
Eccentricity: 0.0013475
inclination: 98.1446°
perigee height: 647 km
apogee height: 666 km
right ascension of ascending node: 96.0018°
argument of perigee: 302.5205°
revolutions per day: 14.71409515
mean anomaly at epoch: 57.4699°

The dashed part of the orbit path shows where the satellite is in the earth's shadow,  

DLR